This is the latest recevied weather packets stored in our database for station/object AI5BL. If no packets are shown the sender has not sent any weather packets the latest 10 day(s).
| Time | Temp. | Humidity | Pressure | Rain* | Wind** | Luminosity | Snow |
|---|---|---|---|---|---|---|---|
| 1788385302 | 35° C | 54% | 1016.8 hPa | 0 mm | - | 68 W/m² | - |
| 1788384998 | 35° C | 50% | 1016.9 hPa | 0 mm | - | 82 W/m² | - |
| 1788384697 | 35° C | 46% | 1017 hPa | 0 mm | - | 71 W/m² | - |
| 1788384392 | 35° C | 47% | 1017.2 hPa | 0 mm | - | 71 W/m² | - |
| 1788384088 | 35° C | 46% | 1017.1 hPa | 0 mm | - | 101 W/m² | - |
| 1788383785 | 35.56° C | 45% | 1017.1 hPa | 0 mm | - | 88 W/m² | - |
| 1788383479 | 35.56° C | 47% | 1017.1 hPa | 0 mm | - | 97 W/m² | - |
| 1788383179 | 35° C | 47% | 1017.4 hPa | 0 mm | - | 113 W/m² | - |
| 1788382874 | 35° C | 54% | 1017.3 hPa | 0 mm | - | 274 W/m² | - |
| 1788382573 | 34.44° C | 48% | 1017.1 hPa | 0 mm | - | 139 W/m² | - |
| 1788382268 | 35° C | 47% | 1017.3 hPa | 0 mm | - | 75 W/m² | - |
| 1788381968 | 35.56° C | 47% | 1017.4 hPa | 0 mm | - | 68 W/m² | - |
| 1788381663 | 36.11° C | 45% | 1017.3 hPa | 0 mm | - | 65 W/m² | - |
| 1788381359 | 36.11° C | 45% | 1017.3 hPa | 0 mm | - | 89 W/m² | - |
| 1788381058 | 35.56° C | 49% | 1017.3 hPa | 0 mm | - | 127 W/m² | - |
| 1788380754 | 35.56° C | 52% | 1017.4 hPa | 0 mm | - | 115 W/m² | - |
| 1788380450 | 35.56° C | 49% | 1017.4 hPa | 0 mm | - | 120 W/m² | - |
| 1788380146 | 35.56° C | 45% | 1017.3 hPa | 0 mm | - | 137 W/m² | - |
| 1788379845 | 35.56° C | 44% | 1017.6 hPa | 0 mm | - | 88 W/m² | - |
| 1788379540 | 35° C | 47% | 1017.5 hPa | 0 mm | - | 137 W/m² | - |
| 1788379236 | 34.44° C | 50% | 1017.7 hPa | 0 mm | - | 136 W/m² | - |
| 1788378932 | 33.89° C | 58% | 1018 hPa | 0 mm | - | 74 W/m² | - |
| 1788378630 | 34.44° C | 50% | 1017.9 hPa | 0 mm | - | 78 W/m² | - |
| 1788378330 | 35° C | 49% | 1017.7 hPa | 0 mm | - | 88 W/m² | - |
| 1788378026 | 33.89° C | 54% | 1018 hPa | 0 mm | - | 158 W/m² | - |
* Rain latest hour (hover to see other rain measurements)
** Current wind speed in m/s (hover to see current wind gust speed)